[[{"header":{"parameterUnit":"m.s-1","parameterCategory":1,"la1":30.2991,"la2":30.254,"lo1":-89.0895,"lo2":-89.0444,"dx":0.0017,"dy":0.0017,"nx":28,"ny":28,"refTime":"2022-11-04T21:00:00:Z","depth":0,"parameterNumber":2,"parameterNumberName":"U-component_of_WINDS"},"data":[0,0,0,0,0,0,0,0,0,0,0,0,0,0,0,0,0,0,0,0,0,0,0,0,0,0,0,0,0,0,0,0,0,0,0,0,0,0,0,0,0,0,0,0,0,0,0,0,0,0,0,0,0,0,0,0,0,0,-3.89,-3.8901,0,-3.9035,-3.9037,-3.9038,-3.9087,-3.9086,-3.9086,-3.9085,-3.9225,-3.9229,-3.9233,0,0,0,0,0,0,0,0,0,0,0,0,0,-3.8684,-3.8688,-3.8899,-3.8901,-3.8903,-3.9035,-3.9037,-3.9039,-3.9087,-3.9086,-3.9086,-3.9085,-3.9223,-3.9228,-3.9233,0,0,0,0,0,0,0,0,0,0,0,0,0,-3.8794,-3.8689,-3.8899,-3.8943,-3.8948,-3.9035,-3.9037,-3.9039,-3.9087,-3.9086,-3.9085,-3.9085,-3.9222,-3.9228,-3.9234,-3.9287,0,0,-3.9253,-3.9256,0,0,0,0,0,0,0,0,-3.8788,-3.8802,-3.8935,-3.894,-3.8946,-3.9043,-3.9012,-3.9122,-3.9087,-3.9034,-3.9085,-3.9084,-3.9165,-3.9176,-3.9203,-3.9294,-3.93,-3.9254,-3.9257,-3.926,-3.9262,0,0,0,0,0,0,0,-3.878,-3.8797,-3.8953,-3.8937,-3.8943,-3.8956,-3.8971,-3.9033,-3.9102,-3.9039,-3.9043,-3.9058,-3.9168,-3.9197,-3.9207,-3.9302,-3.9253,-3.9259,-3.9263,-3.9265,-3.9445,-3.9446,0,0,0,0,0,0,-3.8765,-3.879,-3.8949,-3.8957,-3.8864,-3.8961,-3.8977,-3.9013,-3.9102,-3.9114,-3.9058,-3.906,-3.9186,-3.9199,-3.9212,-3.928,-3.926,-3.9266,-3.927,-3.9444,-3.9445,-3.9446,0,0,0,0,0,0,-3.876,-3.8779,-3.8943,-3.8875,-3.8897,-3.8965,-3.9005,-3.9016,-3.9045,-3.9116,-3.9129,-3.9075,-3.9186,-3.9203,-3.9268,-3.9286,-3.9269,-3.9274,-3.9443,-3.9444,-3.9445,-3.9417,0,0,0,0,0,0,-3.8754,-3.8777,-3.8797,-3.8875,-3.89,-3.8997,-3.9006,-3.9019,-3.9055,-3.9058,-3.9135,-3.9147,-3.9187,-3.9259,-3.9275,-3.9294,-3.9279,-3.9441,-3.9443,-3.9445,-3.9417,-3.9418,-3.9418,0,0,0,0,0,-3.8746,-3.8784,-3.8798,-3.8817,-3.8927,-3.8998,-3.9012,-3.9057,-3.9056,-3.9078,-3.9124,-3.9145,-3.9282,-3.9265,-3.9283,-3.9305,-3.944,-3.9443,-3.9445,-3.9417,-3.9417,-3.9418,0,0,0,0,0,0,-3.8706,-3.8795,-3.8811,-3.8875,-3.8929,-3.9006,-3.9034,-3.9056,-3.9111,-3.9112,-3.9165,-3.9182,-3.9244,-3.9281,-3.9261,-3.9362,-3.9362,-3.9368,-3.9335,-3.9336,-3.9337,-3.9326,-3.9285,0,0,0,0,0,-3.8705,-3.8755,-3.883,-3.8879,-3.8905,-3.8965,-3.8997,-3.9027,-3.9085,-3.9108,-3.9159,-3.9214,-3.927,-3.9305,-3.936,-3.9423,-3.9441,-3.9447,-3.9448,-3.9448,-3.9452,-3.9489,-3.9492,-3.9453,-3.9453,-3.9453,0,0,-3.8703,-3.8757,-3.8785,-3.8872,-3.8917,-3.8968,-3.8983,-3.9037,-3.9075,-3.9116,-3.9181,-3.922,-3.9286,-3.935,-3.9381,-3.9384,-3.9467,-3.9451,-3.9451,-3.9455,-3.9491,-3.9495,-3.9498,-3.9455,-3.9455,-3.9454,0,0,-3.8724,-3.8771,-3.8817,-3.8862,-3.893,-3.897,-3.8981,-3.9055,-3.9083,-3.9149,-3.9181,-3.9228,-3.9323,-3.9368,-3.9404,-3.9444,-3.9466,-3.9461,-3.9464,-3.9499,-3.9502,-3.9505,-3.9519,-3.9524,-3.9465,-3.9465,-3.9465,0,-3.8713,-3.879,-3.8838,-3.8889,-3.8927,-3.8967,-3.9014,-3.9056,-3.9138,-3.9164,-3.9165,-3.9285,-3.9332,-3.9408,-3.9418,-3.9446,-3.946,-3.9452,-3.9498,-3.9501,-3.9505,-3.9519,-3.9524,-3.9464,-3.9464,-3.9464,-3.9465,0,-3.8773,-3.8826,-3.8855,-3.8934,-3.8975,-3.9024,-3.908,-3.9116,-3.9143,-3.9183,-3.925,-3.9308,-3.9376,-3.9397,-3.9424,-3.9477,-3.9476,-3.9487,-3.9488,-3.9506,-3.9521,-3.9527,-3.9463,-3.9463,-3.9463,-3.9464,0,0,-3.8771,-3.8876,-3.8886,-3.8923,-3.9001,-3.9044,-3.9096,-3.9162,-3.9192,-3.9248,-3.9293,-3.9373,-3.9384,-3.9424,-3.9457,-3.9488,-3.9516,-3.9495,-3.9497,-3.9496,-3.9579,-3.9569,-3.9575,-3.9532,-3.9533,-3.9534,-3.9573,0,-3.8803,-3.8896,-3.8941,-3.9014,-3.9065,-3.9104,-3.915,-3.9203,-3.9242,-3.9291,-3.9335,-3.9391,-3.9401,-3.9426,-3.9458,-3.9506,-3.9533,-3.9504,-3.9574,-3.9576,-3.9555,-3.9582,-3.9572,-3.9606,-3.9579,-3.958,-3.9581,0,-3.8851,-3.8907,-3.8985,-3.9059,-3.9082,-3.9121,-3.9186,-3.9232,-3.9294,-3.9321,-3.9367,-3.9399,-3.9456,-3.9454,-3.9533,-3.9512,-3.9544,-3.9572,-3.9575,-3.9582,-3.9578,-3.9589,-3.9618,-3.9623,-3.959,-3.9589,-3.9589,0,-3.8841,-3.8936,-3.8996,-3.9026,-3.9113,-3.914,-3.9178,-3.924,-3.9277,-3.9334,-3.9359,-3.9422,-3.9456,-3.9505,-3.9554,-3.9548,-3.9628,-3.9631,-3.9652,-3.9651,-3.9666,-3.9664,-3.9699,-3.9688,-3.9688,-3.9688,-3.9688,0,-3.8871,-3.8917,-3.8992,-3.9029,-3.9082,-3.9135,-3.9186,-3.9227,-3.9282,-3.9328,-3.9367,-3.9409,-3.9471,-3.9521,-3.956,-3.962,-3.9635,-3.9659,-3.9668,-3.9655,-3.9651,-3.9675,-3.9674,-3.9689,-3.9689,-3.9689,-3.9688,0,-3.8868,-3.8921,-3.8988,-3.9065,-3.9086,-3.9122,-3.9189,-3.9226,-3.9268,-3.9326,-3.9342,-3.9408,-3.9469,-3.9523,-3.9604,-3.9631,-3.9692,-3.9704,-3.967,-3.9675,-3.9693,-3.969,-3.9744,-3.9754,-3.9736,-3.9736,-3.9736,0,-3.8883,-3.892,-3.9001,-3.9034,-3.9071,-3.9124,-3.9163,-3.9216,-3.9255,-3.9329,-3.9358,-3.9422,-3.9476,-3.9572,-3.9628,-3.9691,-3.9704,-3.9719,-3.9714,-3.9699,-3.9704,-3.97,-3.9704,-3.9718,-3.9718,-3.9718,-3.9718,0,-3.8904,-3.8928,-3.8981,-3.9044,-3.9089,-3.9141,-3.9194,-3.9219,-3.9283,-3.9325,-3.9388,-3.943,-3.9513,-3.9576,-3.9645,-3.9685,-3.9712,-3.9719,-3.9727,-3.9713,-3.9692,-3.9703,-3.9669,-3.9717,-3.9717,-3.9717,-3.9717,-3.9717,-3.891,-3.8945,-3.9007,-3.9066,-3.9112,-3.9161,-3.92,-3.9247,-3.93,-3.9371,-3.9401,-3.9465,-3.9528,-3.9623,-3.9663,-3.9715,-3.9719,-3.9731,-3.9734,-3.9736,-3.9733,-3.9684,-3.9728,-3.9728,-3.9728,-3.9728,-3.9728,0,-3.8932,-3.8975,-3.9028,-3.9101,-3.9148,-3.9169,-3.923,-3.9267,-3.9323,-3.9379,-3.9432,-3.9505,-3.9567,-3.9628,-3.9693,-3.9723,-3.9737,-3.9738,-3.9736,-3.9745,-3.9726,-3.9712,-3.9726,-3.9726,-3.9726,-3.9726,-3.9726,-3.9726,-3.8949,-3.9008,-3.904,-3.9123,-3.9166,-3.9229,-3.9262,-3.9308,-3.9353,-3.9432,-3.9484,-3.9523,-3.9582,-3.9652,-3.971,-3.9727,-3.9749,-3.9747,-3.9766,-3.9747,-3.9746,-3.9746,-3.9733,-3.9751,-3.9751,-3.9781,-3.9782,-3.9782]},{"header":{"parameterUnit":"m.s-1","parameterCategory":1,"la1":30.2991,"la2":30.254,"lo1":-89.0895,"lo2":-89.0444,"dx":0.0017,"dy":0.0017,"nx":28,"ny":28,"refTime":"2022-11-04T21:00:00:Z","depth":0,"parameterNumber":3,"parameterNumberName":"V-component_of_WINDS"},"data":[0,0,0,0,0,0,0,0,0,0,0,0,0,0,0,0,0,0,0,0,0,0,0,0,0,0,0,0,0,0,0,0,0,0,0,0,0,0,0,0,0,0,0,0,0,0,0,0,0,0,0,0,0,0,0,0,0,0,3.8176,3.8177,0,3.831,3.8311,3.8313,3.8343,3.8342,3.8341,3.8341,3.8476,3.8481,3.8485,0,0,0,0,0,0,0,0,0,0,0,0,0,3.7948,3.7952,3.8176,3.8178,3.8179,3.831,3.8312,3.8313,3.8344,3.8342,3.8341,3.834,3.8475,3.848,3.8485,0,0,0,0,0,0,0,0,0,0,0,0,0,3.8061,3.7953,3.8176,3.821,3.8214,3.8309,3.8312,3.8314,3.8344,3.8342,3.8341,3.834,3.8473,3.848,3.8486,3.8556,0,0,3.8507,3.851,0,0,0,0,0,0,0,0,3.8054,3.8069,3.8203,3.8208,3.8213,3.8309,3.8281,3.8395,3.8344,3.8295,3.8341,3.8339,3.8421,3.8432,3.846,3.8562,3.8568,3.8507,3.8511,3.8514,3.8516,0,0,0,0,0,0,0,3.8047,3.8064,3.8229,3.8205,3.8211,3.8219,3.8234,3.8303,3.8364,3.8299,3.8301,3.8317,3.8424,3.8454,3.8464,3.857,3.8507,3.8513,3.8517,3.852,3.874,3.8742,0,0,0,0,0,0,3.8033,3.8057,3.8225,3.8233,3.8129,3.8225,3.8241,3.8279,3.8364,3.8375,3.8318,3.8318,3.8443,3.8456,3.8469,3.8559,3.8514,3.8521,3.8524,3.8739,3.8741,3.8743,0,0,0,0,0,0,3.8028,3.8047,3.8219,3.8146,3.8168,3.823,3.8273,3.8283,3.8313,3.8378,3.8389,3.8337,3.8443,3.8459,3.8535,3.8564,3.8524,3.853,3.8736,3.8739,3.8742,3.8739,0,0,0,0,0,0,3.8021,3.8045,3.8072,3.8146,3.8172,3.8283,3.8275,3.8286,3.8325,3.8326,3.8399,3.841,3.8443,3.8525,3.8542,3.8573,3.8535,3.8734,3.8738,3.8741,3.8736,3.8741,3.8745,0,0,0,0,0,3.8013,3.8064,3.8073,3.8093,3.8206,3.8284,3.8299,3.8336,3.8327,3.8355,3.8397,3.8408,3.8558,3.8532,3.8552,3.8585,3.8732,3.8737,3.8741,3.8735,3.874,3.8745,0,0,0,0,0,0,3.799,3.8074,3.8085,3.8162,3.8216,3.8289,3.8325,3.834,3.8398,3.8396,3.8439,3.8456,3.853,3.8565,3.8535,3.8659,3.8645,3.8653,3.8634,3.864,3.8644,3.8634,3.8541,0,0,0,0,0,3.7994,3.805,3.8121,3.8182,3.8209,3.8263,3.8298,3.8322,3.8379,3.8402,3.845,3.8505,3.8566,3.8604,3.8663,3.8741,3.876,3.8774,3.8778,3.8781,3.8788,3.8837,3.8845,3.8756,3.8756,3.8756,0,0,3.8003,3.8056,3.8088,3.8179,3.8224,3.8282,3.8281,3.8342,3.8386,3.8411,3.8487,3.8524,3.8589,3.8668,3.8705,3.8699,3.8817,3.8787,3.8789,3.8794,3.8842,3.885,3.8858,3.8759,3.8759,3.8758,0,0,3.805,3.8094,3.8152,3.8198,3.8266,3.8302,3.8316,3.8388,3.8415,3.8492,3.8513,3.8566,3.8668,3.8715,3.8751,3.882,3.8833,3.8838,3.886,3.8907,3.8914,3.892,3.8948,3.8957,3.8844,3.8844,3.8844,0,3.8052,3.8141,3.818,3.8241,3.8282,3.8309,3.8369,3.8411,3.8495,3.8523,3.8515,3.8647,3.8692,3.8784,3.8801,3.8829,3.8848,3.883,3.8909,3.8916,3.8923,3.895,3.896,3.8845,3.8845,3.8844,3.8844,0,3.8142,3.8203,3.8242,3.8324,3.8369,3.8429,3.8479,3.852,3.8541,3.8578,3.8658,3.8714,3.8786,3.8809,3.8829,3.8905,3.8901,3.8901,3.8888,3.8931,3.8957,3.8968,3.8845,3.8845,3.8845,3.8845,0,0,3.8177,3.8283,3.8296,3.8336,3.8415,3.8464,3.8526,3.8599,3.8634,3.8692,3.8747,3.8835,3.8837,3.8879,3.8905,3.8945,3.9001,3.8941,3.8944,3.8953,3.9092,3.9093,3.9104,3.901,3.9012,3.9013,3.9088,0,3.8235,3.8349,3.8387,3.8482,3.8541,3.8569,3.8624,3.8679,3.8717,3.8773,3.8813,3.8876,3.8873,3.8899,3.894,3.8985,3.903,3.898,3.9063,3.9066,3.9049,3.9118,3.9118,3.9185,3.9098,3.91,3.9101,0,3.8318,3.8379,3.848,3.8556,3.8582,3.8631,3.8702,3.8755,3.8819,3.8844,3.8893,3.8917,3.8986,3.8968,3.9064,3.903,3.9066,3.9094,3.9098,3.9108,3.9087,3.9133,3.9207,3.9219,3.9117,3.9116,3.9114,0,3.8338,3.8445,3.852,3.8553,3.8642,3.8676,3.8715,3.8778,3.882,3.8883,3.8911,3.898,3.9018,3.9072,3.9114,3.9097,3.9209,3.9193,3.9233,3.9232,3.9256,3.9254,3.934,3.9275,3.9275,3.9275,3.9275,0,3.84,3.8461,3.8531,3.8577,3.8648,3.8692,3.8761,3.8802,3.8858,3.8914,3.8942,3.8994,3.9046,3.9106,3.9139,3.9216,3.9232,3.9256,3.9264,3.9255,3.9252,3.928,3.9278,3.9278,3.9277,3.9276,3.9276,0,3.8434,3.8482,3.8567,3.8646,3.8667,3.8716,3.8784,3.8831,3.887,3.8941,3.896,3.9022,3.9094,3.9142,3.9232,3.9255,3.934,3.9346,3.9319,3.9324,3.9362,3.9359,3.9471,3.9489,3.9409,3.941,3.941,0,3.8472,3.852,3.8605,3.8645,3.8684,3.8748,3.8792,3.8839,3.8884,3.8963,3.9001,3.9075,3.9137,3.9251,3.9304,3.9375,3.9385,3.942,3.9396,3.9386,3.9389,3.9387,3.9394,3.9424,3.9424,3.9425,3.9425,0,3.8535,3.8558,3.862,3.8693,3.8745,3.8804,3.8863,3.8894,3.8951,3.9001,3.9075,3.9124,3.9219,3.9293,3.9369,3.941,3.9429,3.9432,3.9446,3.9438,3.9421,3.9434,3.9332,3.943,3.9429,3.9429,3.9429,3.9429,3.8574,3.862,3.8688,3.8758,3.8808,3.8864,3.8913,3.896,3.9023,3.9105,3.9128,3.9207,3.9273,3.9379,3.9421,3.9484,3.9481,3.9499,3.9504,3.9509,3.9511,3.9409,3.9498,3.9498,3.9498,3.9498,3.9497,0,3.8642,3.8688,3.8752,3.8835,3.8891,3.8903,3.897,3.9017,3.9086,3.9146,3.9208,3.9296,3.9369,3.9429,3.9505,3.9544,3.9554,3.9562,3.9561,3.9571,3.9508,3.949,3.9553,3.9553,3.9553,3.9553,3.9553,3.9553,3.8684,3.8764,3.8795,3.89,3.8946,3.9024,3.9062,3.9114,3.9163,3.926,3.9322,3.9361,3.9422,3.9504,3.9572,3.9588,3.9616,3.9623,3.9641,3.9581,3.9575,3.9569,3.9553,3.9628,3.9628,3.9699,3.97,3.97]}]]